Time,TemperatureF,DewpointF,PressureIn,WindDirection,WindDirectionDegrees,WindSpeedMPH,WindSpeedGustMPH,Humidity,HourlyPrecipIn,Conditions,Clouds,dailyrainin,SoftwareType,DateUTC
2013-09-14 00:01:00,58.7,45.3,27.30,ESE,113,0.0,0.0,61,0.00,,,0.00,WUHU216HW,2013-09-14 07:01:00,
2013-09-14 00:06:00,58.7,45.3,27.30,ESE,113,0.0,0.0,61,0.00,,,0.00,WUHU216HW,2013-09-14 07:06:00,
2013-09-14 00:11:00,58.5,45.1,27.30,ESE,113,0.0,0.0,61,0.00,,,0.00,WUHU216HW,2013-09-14 07:11:00,
2013-09-14 00:16:00,58.3,44.9,27.30,ESE,113,0.0,0.0,61,0.00,,,0.00,WUHU216HW,2013-09-14 07:16:00,
2013-09-14 00:21:00,58.1,45.2,27.30,ESE,113,0.0,0.0,62,0.00,,,0.00,WUHU216HW,2013-09-14 07:21:00,
2013-09-14 00:26:00,58.0,45.0,27.30,ESE,113,0.0,0.0,62,0.00,,,0.00,WUHU216HW,2013-09-14 07:26:00,
2013-09-14 00:31:00,58.0,45.0,27.30,ESE,113,0.0,0.0,62,0.00,,,0.00,WUHU216HW,2013-09-14 07:31:00,
2013-09-14 00:36:00,57.8,45.3,27.30,ESE,113,0.0,0.0,63,0.00,,,0.00,WUHU216HW,2013-09-14 07:36:00,
2013-09-14 00:41:00,57.6,45.1,27.30,ESE,113,0.0,0.0,63,0.00,,,0.00,WUHU216HW,2013-09-14 07:41:00,
2013-09-14 00:46:00,57.4,44.9,27.30,ESE,113,0.4,0.4,63,0.00,,,0.00,WUHU216HW,2013-09-14 07:46:00,
2013-09-14 00:51:00,57.1,45.0,27.31,ESE,113,0.4,0.9,64,0.00,,,0.00,WUHU216HW,2013-09-14 07:51:00,
2013-09-14 00:56:00,56.9,44.8,27.31,ESE,113,0.0,0.9,64,0.00,,,0.00,WUHU216HW,2013-09-14 07:56:00,
2013-09-14 01:01:00,56.9,44.8,27.31,ESE,113,0.0,0.4,64,0.00,,,0.00,WUHU216HW,2013-09-14 08:01:00,
2013-09-14 01:06:00,56.7,44.7,27.31,ESE,113,0.0,0.2,64,0.00,,,0.00,WUHU216HW,2013-09-14 08:06:00,
2013-09-14 01:11:00,56.7,44.7,27.31,ESE,113,0.0,0.0,64,0.00,,,0.00,WUHU216HW,2013-09-14 08:11:00,
2013-09-14 01:16:00,56.7,44.7,27.31,ESE,113,0.0,0.0,64,0.00,,,0.00,WUHU216HW,2013-09-14 08:16:00,
2013-09-14 01:21:00,56.5,44.5,27.31,ESE,113,0.0,0.0,64,0.00,,,0.00,WUHU216HW,2013-09-14 08:21:00,
2013-09-14 01:26:00,56.5,44.8,27.31,ESE,113,0.0,0.0,65,0.00,,,0.00,WUHU216HW,2013-09-14 08:26:00,
2013-09-14 01:31:00,56.5,44.8,27.31,ESE,113,0.0,0.0,65,0.00,,,0.00,WUHU216HW,2013-09-14 08:31:00,
2013-09-14 01:36:00,56.3,44.7,27.31,ESE,113,0.7,0.7,65,0.00,,,0.00,WUHU216HW,2013-09-14 08:36:00,
2013-09-14 01:41:00,56.2,44.9,27.32,ESE,113,0.0,0.7,66,0.00,,,0.00,WUHU216HW,2013-09-14 08:41:00,
2013-09-14 01:46:00,56.2,44.9,27.32,ESE,113,0.0,0.7,66,0.00,,,0.00,WUHU216HW,2013-09-14 08:46:00,
2013-09-14 01:51:00,56.2,44.9,27.32,ESE,113,0.0,0.0,66,0.00,,,0.00,WUHU216HW,2013-09-14 08:51:00,
2013-09-14 01:56:00,56.0,44.7,27.32,ESE,113,0.0,0.0,66,0.00,,,0.00,WUHU216HW,2013-09-14 08:56:00,
2013-09-14 02:01:00,55.8,44.6,27.32,ESE,113,0.0,0.2,66,0.00,,,0.00,WUHU216HW,2013-09-14 09:01:00,
2013-09-14 02:06:00,55.8,44.6,27.32,ESE,113,0.0,0.2,66,0.00,,,0.00,WUHU216HW,2013-09-14 09:06:00,
2013-09-14 02:11:00,55.6,44.4,27.32,ESE,113,0.0,0.0,66,0.00,,,0.00,WUHU216HW,2013-09-14 09:11:00,
2013-09-14 02:16:00,55.4,44.6,27.32,ESE,113,0.0,0.0,67,0.00,,,0.00,WUHU216HW,2013-09-14 09:16:00,
2013-09-14 02:21:00,55.3,44.5,27.32,ESE,113,0.0,0.0,67,0.00,,,0.00,WUHU216HW,2013-09-14 09:21:00,
2013-09-14 02:26:00,55.3,44.5,27.32,ESE,113,0.0,0.0,67,0.00,,,0.00,WUHU216HW,2013-09-14 09:26:00,
2013-09-14 02:31:00,55.3,44.5,27.32,SE,135,0.0,0.2,67,0.00,,,0.00,WUHU216HW,2013-09-14 09:31:00,
2013-09-14 02:36:00,55.1,44.3,27.32,SE,135,0.0,0.2,67,0.00,,,0.00,WUHU216HW,2013-09-14 09:36:00,
2013-09-14 02:41:00,55.1,44.3,27.32,SE,135,0.0,0.0,67,0.00,,,0.00,WUHU216HW,2013-09-14 09:41:00,
2013-09-14 02:46:00,54.9,44.6,27.32,SE,135,0.0,0.0,68,0.00,,,0.00,WUHU216HW,2013-09-14 09:46:00,
2013-09-14 02:51:00,54.9,44.6,27.32,SE,135,0.0,0.0,68,0.00,,,0.00,WUHU216HW,2013-09-14 09:51:00,
2013-09-14 02:56:00,54.7,44.4,27.32,SE,135,0.0,0.0,68,0.00,,,0.00,WUHU216HW,2013-09-14 09:56:00,
2013-09-14 03:01:00,54.7,44.4,27.32,SE,135,0.0,0.0,68,0.00,,,0.00,WUHU216HW,2013-09-14 10:01:00,
2013-09-14 03:06:00,54.5,44.2,27.33,SE,135,0.0,0.0,68,0.00,,,0.00,WUHU216HW,2013-09-14 10:06:00,
2013-09-14 03:11:00,54.5,44.6,27.32,SE,135,0.0,0.0,69,0.00,,,0.00,WUHU216HW,2013-09-14 10:11:00,
2013-09-14 03:16:00,54.4,44.5,27.32,ESE,113,0.0,0.0,69,0.00,,,0.00,WUHU216HW,2013-09-14 10:16:00,
2013-09-14 03:21:00,54.4,44.5,27.32,ESE,113,0.0,0.0,69,0.00,,,0.00,WUHU216HW,2013-09-14 10:21:00,
2013-09-14 03:26:00,54.4,44.5,27.32,ESE,113,0.0,0.0,69,0.00,,,0.00,WUHU216HW,2013-09-14 10:26:00,
2013-09-14 03:31:00,54.2,44.3,27.33,ESE,113,0.0,0.0,69,0.00,,,0.00,WUHU216HW,2013-09-14 10:31:00,
2013-09-14 03:36:00,54.0,44.1,27.33,ESE,113,0.0,0.0,69,0.00,,,0.00,WUHU216HW,2013-09-14 10:36:00,
2013-09-14 03:41:00,54.0,44.1,27.33,ESE,113,0.0,0.0,69,0.00,,,0.00,WUHU216HW,2013-09-14 10:41:00,
2013-09-14 03:46:00,53.8,43.9,27.33,ESE,113,0.0,0.0,69,0.00,,,0.00,WUHU216HW,2013-09-14 10:46:00,
2013-09-14 03:51:00,53.8,43.9,27.33,ESE,113,0.2,0.2,69,0.00,,,0.00,WUHU216HW,2013-09-14 10:51:00,
2013-09-14 03:56:00,53.6,44.1,27.33,ESE,113,0.0,0.4,70,0.00,,,0.00,WUHU216HW,2013-09-14 10:56:00,
2013-09-14 04:01:00,53.6,44.8,27.33,West,270,0.4,0.7,72,0.00,,,0.00,WUHU216HW,2013-09-14 11:01:00,
2013-09-14 04:06:00,53.6,44.1,27.34,NW,315,0.0,0.7,70,0.00,,,0.00,WUHU216HW,2013-09-14 11:06:00,
2013-09-14 04:11:00,53.6,44.1,27.34,NW,315,0.0,0.0,70,0.00,,,0.00,WUHU216HW,2013-09-14 11:11:00,
2013-09-14 04:16:00,53.5,44.3,27.34,WSW,248,0.0,0.4,71,0.00,,,0.00,WUHU216HW,2013-09-14 11:16:00,
2013-09-14 04:21:00,53.1,44.0,27.34,East,90,0.2,0.4,71,0.00,,,0.00,WUHU216HW,2013-09-14 11:21:00,
2013-09-14 04:26:00,52.9,43.8,27.34,East,90,0.0,0.4,71,0.00,,,0.00,WUHU216HW,2013-09-14 11:26:00,
2013-09-14 04:31:00,53.1,44.0,27.34,East,90,0.0,0.2,71,0.00,,,0.00,WUHU216HW,2013-09-14 11:31:00,
2013-09-14 04:36:00,53.1,44.0,27.34,East,90,0.0,0.0,71,0.00,,,0.00,WUHU216HW,2013-09-14 11:36:00,
2013-09-14 04:41:00,52.9,44.2,27.34,East,90,0.0,0.0,72,0.00,,,0.00,WUHU216HW,2013-09-14 11:41:00,
2013-09-14 04:46:00,52.9,44.2,27.34,East,90,0.0,0.0,72,0.00,,,0.00,WUHU216HW,2013-09-14 11:46:00,
2013-09-14 04:51:00,52.9,44.2,27.34,East,90,0.0,0.0,72,0.00,,,0.00,WUHU216HW,2013-09-14 11:51:00,
2013-09-14 04:56:00,52.6,43.8,27.34,East,90,0.0,0.0,72,0.00,,,0.00,WUHU216HW,2013-09-14 11:56:00,
2013-09-14 05:00:00,52.6,43.5,27.34,East,90,0.0,0.0,71,0.00,,,0.00,WUHU216HW,2013-09-14 12:00:00,
2013-09-14 05:05:00,52.4,43.7,27.35,East,90,0.0,0.0,72,0.00,,,0.00,WUHU216HW,2013-09-14 12:05:00,
2013-09-14 05:10:00,52.2,43.5,27.35,East,90,0.0,0.0,72,0.00,,,0.00,WUHU216HW,2013-09-14 12:10:00,
2013-09-14 05:15:00,52.2,43.5,27.35,East,90,0.0,0.0,72,0.00,,,0.00,WUHU216HW,2013-09-14 12:15:00,
2013-09-14 05:20:00,52.2,43.5,27.35,East,90,0.0,0.0,72,0.00,,,0.00,WUHU216HW,2013-09-14 12:20:00,
2013-09-14 05:25:00,52.2,43.5,27.35,East,90,0.0,0.0,72,0.00,,,0.00,WUHU216HW,2013-09-14 12:25:00,
2013-09-14 05:30:00,52.4,43.7,27.35,East,90,0.0,0.0,72,0.00,,,0.00,WUHU216HW,2013-09-14 12:30:00,
2013-09-14 05:35:00,52.4,43.7,27.35,East,90,0.0,0.0,72,0.00,,,0.00,WUHU216HW,2013-09-14 12:35:00,
2013-09-14 05:40:00,52.4,43.7,27.35,East,90,0.0,0.0,72,0.00,,,0.00,WUHU216HW,2013-09-14 12:40:00,
2013-09-14 05:45:00,52.4,43.7,27.35,East,90,0.0,0.0,72,0.00,,,0.00,WUHU216HW,2013-09-14 12:45:00,
2013-09-14 05:50:00,52.4,43.7,27.35,East,90,0.0,0.0,72,0.00,,,0.00,WUHU216HW,2013-09-14 12:50:00,
2013-09-14 05:55:00,52.4,43.7,27.35,East,90,0.0,0.0,72,0.00,,,0.00,WUHU216HW,2013-09-14 12:55:00,
2013-09-14 06:00:00,52.2,43.5,27.35,East,90,0.0,0.0,72,0.00,,,0.00,WUHU216HW,2013-09-14 13:00:00,
2013-09-14 06:05:00,52.2,43.5,27.35,East,90,0.0,0.0,72,0.00,,,0.00,WUHU216HW,2013-09-14 13:05:00,
2013-09-14 06:10:00,52.4,44.0,27.35,East,90,0.0,0.0,73,0.00,,,0.00,WUHU216HW,2013-09-14 13:10:00,
2013-09-14 06:15:00,52.2,43.8,27.35,East,90,0.0,0.0,73,0.00,,,0.00,WUHU216HW,2013-09-14 13:15:00,
2013-09-14 06:20:00,52.2,43.5,27.35,East,90,0.0,0.0,72,0.00,,,0.00,WUHU216HW,2013-09-14 13:20:00,
2013-09-14 06:25:00,52.2,43.8,27.36,East,90,0.0,0.0,73,0.00,,,0.00,WUHU216HW,2013-09-14 13:25:00,
2013-09-14 06:30:00,52.2,43.8,27.36,East,90,0.0,0.0,73,0.00,,,0.00,WUHU216HW,2013-09-14 13:30:00,
2013-09-14 06:35:00,52.0,43.7,27.36,East,90,0.0,0.0,73,0.00,,,0.00,WUHU216HW,2013-09-14 13:35:00,
2013-09-14 06:40:00,52.0,43.7,27.36,East,90,0.0,0.0,73,0.00,,,0.00,WUHU216HW,2013-09-14 13:40:00,
2013-09-14 06:45:00,52.0,43.7,27.36,East,90,0.0,0.4,73,0.00,,,0.00,WUHU216HW,2013-09-14 13:45:00,
2013-09-14 06:50:00,52.2,44.2,27.37,East,90,0.0,0.4,74,0.00,,,0.00,WUHU216HW,2013-09-14 13:50:00,
2013-09-14 06:55:00,52.2,44.2,27.36,East,90,0.0,0.2,74,0.00,,,0.00,WUHU216HW,2013-09-14 13:55:00,
2013-09-14 07:00:00,52.4,44.4,27.36,East,90,0.0,0.0,74,0.00,,,0.00,WUHU216HW,2013-09-14 14:00:00,
2013-09-14 07:05:00,52.4,44.4,27.37,East,90,0.0,0.0,74,0.00,,,0.00,WUHU216HW,2013-09-14 14:05:00,
2013-09-14 07:10:00,52.6,44.9,27.37,East,90,0.0,0.0,75,0.00,,,0.00,WUHU216HW,2013-09-14 14:10:00,
2013-09-14 07:15:00,52.6,44.9,27.37,East,90,0.0,0.0,75,0.00,,,0.00,WUHU216HW,2013-09-14 14:15:00,
2013-09-14 07:20:00,52.7,45.0,27.37,East,90,0.0,0.0,75,0.00,,,0.00,WUHU216HW,2013-09-14 14:20:00,
2013-09-14 07:25:00,52.9,45.2,27.38,East,90,0.0,0.0,75,0.00,,,0.00,WUHU216HW,2013-09-14 14:25:00,
2013-09-14 07:30:00,52.9,45.2,27.38,East,90,0.0,0.0,75,0.00,,,0.00,WUHU216HW,2013-09-14 14:30:00,
2013-09-14 07:35:00,53.1,45.4,27.38,East,90,0.0,0.0,75,0.00,,,0.00,WUHU216HW,2013-09-14 14:35:00,
2013-09-14 07:40:00,53.5,45.7,27.38,East,90,0.0,0.0,75,0.00,,,0.00,WUHU216HW,2013-09-14 14:40:00,
2013-09-14 07:45:00,53.6,45.9,27.38,East,90,0.0,0.0,75,0.00,,,0.00,WUHU216HW,2013-09-14 14:45:00,
2013-09-14 07:50:00,53.8,46.1,27.38,East,90,0.0,0.0,75,0.00,,,0.00,WUHU216HW,2013-09-14 14:50:00,
2013-09-14 07:55:00,54.2,46.5,27.38,East,90,0.0,0.0,75,0.00,,,0.00,WUHU216HW,2013-09-14 14:55:00,
2013-09-14 08:00:00,54.4,46.6,27.38,East,90,0.0,0.0,75,0.00,,,0.00,WUHU216HW,2013-09-14 15:00:00,
2013-09-14 08:05:00,54.7,47.3,27.38,East,90,0.0,0.0,76,0.00,,,0.00,WUHU216HW,2013-09-14 15:05:00,
2013-09-14 08:10:00,55.1,47.6,27.38,East,90,0.2,0.2,76,0.00,,,0.00,WUHU216HW,2013-09-14 15:10:00,
2013-09-14 08:15:00,55.4,48.0,27.38,East,90,0.0,0.2,76,0.00,,,0.00,WUHU216HW,2013-09-14 15:15:00,
2013-09-14 08:20:00,55.8,48.3,27.38,East,90,0.0,0.0,76,0.00,,,0.00,WUHU216HW,2013-09-14 15:20:00,
2013-09-14 08:25:00,56.3,49.1,27.39,East,90,0.0,0.0,77,0.00,,,0.00,WUHU216HW,2013-09-14 15:25:00,
2013-09-14 08:30:00,56.9,49.7,27.39,East,90,0.0,0.0,77,0.00,,,0.00,WUHU216HW,2013-09-14 15:30:00,
2013-09-14 08:35:00,57.4,50.2,27.39,WSW,248,0.4,0.4,77,0.00,,,0.00,WUHU216HW,2013-09-14 15:35:00,
2013-09-14 08:40:00,58.0,51.1,27.39,WSW,248,0.4,0.7,78,0.00,,,0.00,WUHU216HW,2013-09-14 15:40:00,
2013-09-14 08:45:00,58.7,51.5,27.39,SW,225,0.0,0.9,77,0.00,,,0.00,WUHU216HW,2013-09-14 15:45:00,
2013-09-14 08:50:00,59.8,52.6,27.39,WSW,248,0.0,0.9,77,0.00,,,0.00,WUHU216HW,2013-09-14 15:50:00,
2013-09-14 08:55:00,60.8,53.3,27.39,West,270,0.0,0.0,76,0.00,,,0.00,WUHU216HW,2013-09-14 15:55:00,
2013-09-14 09:00:00,62.5,54.4,27.39,WSW,248,0.4,0.9,75,0.00,,,0.00,WUHU216HW,2013-09-14 16:00:00,
2013-09-14 09:05:00,63.7,55.3,27.39,West,270,0.2,1.1,74,0.00,,,0.00,WUHU216HW,2013-09-14 16:05:00,
2013-09-14 09:10:00,64.8,56.0,27.39,NNW,338,0.0,1.1,73,0.00,,,0.00,WUHU216HW,2013-09-14 16:10:00,
2013-09-14 09:15:00,65.5,56.6,27.39,WSW,248,0.0,0.7,73,0.00,,,0.00,WUHU216HW,2013-09-14 16:15:00,
2013-09-14 09:20:00,66.2,56.5,27.40,WSW,248,1.1,1.8,71,0.00,,,0.00,WUHU216HW,2013-09-14 16:20:00,
2013-09-14 09:25:00,66.8,56.7,27.40,SW,225,0.4,1.8,70,0.00,,,0.00,WUHU216HW,2013-09-14 16:25:00,
2013-09-14 09:30:00,67.5,57.4,27.40,West,270,1.1,1.1,70,0.00,,,0.00,WUHU216HW,2013-09-14 16:30:00,
2013-09-14 09:35:00,68.4,57.4,27.40,SW,225,0.4,2.0,68,0.00,,,0.00,WUHU216HW,2013-09-14 16:35:00,
2013-09-14 09:40:00,69.5,58.4,27.40,WSW,248,1.3,2.5,68,0.00,,,0.00,WUHU216HW,2013-09-14 16:40:00,
2013-09-14 09:45:00,70.6,59.1,27.40,WSW,248,0.4,2.5,67,0.00,,,0.00,WUHU216HW,2013-09-14 16:45:00,
2013-09-14 09:50:00,72.0,59.6,27.40,NE,45,1.1,2.2,65,0.00,,,0.00,WUHU216HW,2013-09-14 16:50:00,
2013-09-14 09:55:00,73.1,59.2,27.40,West,270,0.0,3.1,62,0.00,,,0.00,WUHU216HW,2013-09-14 16:55:00,
2013-09-14 10:00:00,74.2,58.4,27.40,West,270,1.1,3.1,58,0.00,,,0.00,WUHU216HW,2013-09-14 17:00:00,
2013-09-14 10:05:00,75.4,59.1,27.40,NW,315,0.2,2.5,57,0.00,,,0.00,WUHU216HW,2013-09-14 17:05:00,
2013-09-14 10:10:00,76.3,56.4,27.40,ESE,113,0.4,1.8,50,0.00,,,0.00,WUHU216HW,2013-09-14 17:10:00,
2013-09-14 10:15:00,76.7,58.2,27.40,South,180,0.4,2.5,53,0.00,,,0.00,WUHU216HW,2013-09-14 17:15:00,
2013-09-14 10:20:00,77.6,58.6,27.40,ESE,113,2.5,2.5,52,0.00,,,0.00,WUHU216HW,2013-09-14 17:20:00,
2013-09-14 10:25:00,78.8,58.1,27.40,WSW,248,1.1,2.5,49,0.00,,,0.00,WUHU216HW,2013-09-14 17:25:00,
2013-09-14 10:30:00,79.7,58.9,27.40,ENE,68,0.7,2.5,49,0.00,,,0.00,WUHU216HW,2013-09-14 17:30:00,
2013-09-14 10:35:00,80.3,56.9,27.40,South,180,2.0,3.1,45,0.00,,,0.00,WUHU216HW,2013-09-14 17:35:00,
2013-09-14 10:40:00,80.8,58.1,27.40,NNE,23,1.1,3.1,46,0.00,,,0.00,WUHU216HW,2013-09-14 17:40:00,
2013-09-14 10:45:00,81.5,58.1,27.40,North,0,0.2,2.7,45,0.00,,,0.00,WUHU216HW,2013-09-14 17:45:00,
2013-09-14 10:50:00,82.3,55.6,27.40,SW,225,1.1,2.7,40,0.00,,,0.00,WUHU216HW,2013-09-14 17:50:00,
2013-09-14 10:55:00,82.4,55.8,27.40,SE,135,1.3,2.9,40,0.00,,,0.00,WUHU216HW,2013-09-14 17:55:00,
2013-09-14 11:00:00,82.4,56.4,27.40,West,270,1.1,2.9,41,0.00,,,0.00,WUHU216HW,2013-09-14 18:00:00,
2013-09-14 11:05:00,82.6,56.6,27.40,SW,225,1.3,4.0,41,0.00,,,0.00,WUHU216HW,2013-09-14 18:05:00,
2013-09-14 11:10:00,83.0,56.9,27.40,NNW,338,1.1,4.0,41,0.00,,,0.00,WUHU216HW,2013-09-14 18:10:00,
2013-09-14 11:15:00,83.2,54.9,27.39,SE,135,1.8,3.4,38,0.00,,,0.00,WUHU216HW,2013-09-14 18:15:00,
2013-09-14 11:20:00,83.3,55.8,27.39,NE,45,2.5,3.4,39,0.00,,,0.00,WUHU216HW,2013-09-14 18:20:00,
2013-09-14 11:25:00,83.9,57.1,27.39,WNW,293,1.1,2.7,40,0.00,,,0.00,WUHU216HW,2013-09-14 18:25:00,
2013-09-14 11:30:00,84.2,58.1,27.39,NE,45,1.8,2.5,41,0.00,,,0.00,WUHU216HW,2013-09-14 18:30:00,
2013-09-14 11:35:00,84.8,56.4,27.39,NE,45,0.4,2.0,38,0.00,,,0.00,WUHU216HW,2013-09-14 18:35:00,
2013-09-14 11:40:00,85.0,54.1,27.39,WSW,248,3.4,3.4,35,0.00,,,0.00,WUHU216HW,2013-09-14 18:40:00,
2013-09-14 11:45:00,85.3,56.8,27.39,North,0,1.1,3.4,38,0.00,,,0.00,WUHU216HW,2013-09-14 18:45:00,
2013-09-14 11:50:00,85.7,55.5,27.39,East,90,0.4,3.4,36,0.00,,,0.00,WUHU216HW,2013-09-14 18:50:00,
2013-09-14 11:55:00,86.2,56.1,27.39,South,180,1.3,3.4,36,0.00,,,0.00,WUHU216HW,2013-09-14 18:55:00,
2013-09-14 12:00:00,86.6,55.5,27.39,NE,45,1.1,4.0,35,0.00,,,0.00,WUHU216HW,2013-09-14 19:00:00,
2013-09-14 12:05:00,87.1,56.0,27.39,SSE,158,0.7,4.0,35,0.00,,,0.00,WUHU216HW,2013-09-14 19:05:00,
2013-09-14 12:10:00,87.5,55.5,27.39,NNW,338,1.6,4.0,34,0.00,,,0.00,WUHU216HW,2013-09-14 19:10:00,
2013-09-14 12:15:00,88.0,55.2,27.38,ENE,68,1.3,2.5,33,0.00,,,0.00,WUHU216HW,2013-09-14 19:15:00,
2013-09-14 12:20:00,87.7,54.8,27.39,NNW,338,1.8,3.4,33,0.00,,,0.00,WUHU216HW,2013-09-14 19:20:00,
2013-09-14 12:25:00,86.9,52.7,27.39,SSE,158,4.7,4.7,31,0.00,,,0.00,WUHU216HW,2013-09-14 19:25:00,
2013-09-14 12:30:00,86.2,51.3,27.39,SE,135,3.6,5.8,30,0.00,,,0.00,WUHU216HW,2013-09-14 19:30:00,
2013-09-14 12:35:00,86.0,51.1,27.38,SE,135,0.9,7.2,30,0.00,,,0.00,WUHU216HW,2013-09-14 19:35:00,
2013-09-14 12:40:00,86.2,52.0,27.38,WNW,293,0.4,7.2,31,0.00,,,0.00,WUHU216HW,2013-09-14 19:40:00,
2013-09-14 12:45:00,87.1,51.0,27.38,ESE,113,4.9,5.4,29,0.00,,,0.00,WUHU216HW,2013-09-14 19:45:00,
2013-09-14 12:50:00,88.0,52.8,27.38,ESE,113,2.0,6.9,30,0.00,,,0.00,WUHU216HW,2013-09-14 19:50:00,
2013-09-14 12:55:00,88.9,53.6,27.38,ESE,113,1.1,6.9,30,0.00,,,0.00,WUHU216HW,2013-09-14 19:55:00,
2013-09-14 13:00:00,89.5,51.8,27.38,SE,135,7.8,7.8,28,0.00,,,0.00,WUHU216HW,2013-09-14 20:00:00,
2013-09-14 13:05:00,89.5,52.9,27.38,ESE,113,3.1,7.8,29,0.00,,,0.00,WUHU216HW,2013-09-14 20:05:00,
2013-09-14 13:10:00,89.3,51.7,27.38,SSE,158,3.4,7.8,28,0.00,,,0.00,WUHU216HW,2013-09-14 20:10:00,
2013-09-14 13:15:00,89.5,51.8,27.38,WSW,248,1.6,4.3,28,0.00,,,0.00,WUHU216HW,2013-09-14 20:15:00,
2013-09-14 13:20:00,89.3,50.7,27.37,SE,135,3.6,4.0,27,0.00,,,0.00,WUHU216HW,2013-09-14 20:20:00,
2013-09-14 13:25:00,88.9,50.3,27.37,West,270,2.5,4.0,27,0.00,,,0.00,WUHU216HW,2013-09-14 20:25:00,
2013-09-14 13:30:00,88.7,50.1,27.37,WNW,293,3.4,4.0,27,0.00,,,0.00,WUHU216HW,2013-09-14 20:30:00,
2013-09-14 13:35:00,88.7,51.2,27.37,ENE,68,4.7,4.7,28,0.00,,,0.00,WUHU216HW,2013-09-14 20:35:00,
2013-09-14 13:40:00,88.7,51.2,27.37,NNW,338,5.4,5.4,28,0.00,,,0.00,WUHU216HW,2013-09-14 20:40:00,
2013-09-14 13:45:00,88.9,50.3,27.37,WSW,248,2.0,5.4,27,0.00,,,0.00,WUHU216HW,2013-09-14 20:45:00,
2013-09-14 13:50:00,89.1,51.6,27.37,West,270,0.9,5.8,28,0.00,,,0.00,WUHU216HW,2013-09-14 20:50:00,
2013-09-14 13:55:00,88.9,51.4,27.37,SSE,158,2.0,5.8,28,0.00,,,0.00,WUHU216HW,2013-09-14 20:55:00,
2013-09-14 14:00:00,89.5,49.7,27.37,SSW,203,2.5,4.3,26,0.00,,,0.00,WUHU216HW,2013-09-14 21:00:00,
2013-09-14 14:05:00,90.0,51.2,27.37,NNW,338,1.8,3.6,27,0.00,,,0.00,WUHU216HW,2013-09-14 21:05:00,
2013-09-14 14:10:00,90.0,51.2,27.36,WNW,293,1.8,6.3,27,0.00,,,0.00,WUHU216HW,2013-09-14 21:10:00,
2013-09-14 14:15:00,90.0,51.2,27.36,NNE,23,1.1,6.3,27,0.00,,,0.00,WUHU216HW,2013-09-14 21:15:00,
2013-09-14 14:20:00,90.9,50.9,27.36,SW,225,1.3,5.1,26,0.00,,,0.00,WUHU216HW,2013-09-14 21:20:00,
2013-09-14 14:25:00,91.4,49.2,27.36,SSW,203,3.6,5.6,24,0.00,,,0.00,WUHU216HW,2013-09-14 21:25:00,
2013-09-14 14:30:00,91.6,49.3,27.36,ESE,113,6.9,7.2,24,0.00,,,0.00,WUHU216HW,2013-09-14 21:30:00,
2013-09-14 14:35:00,91.4,49.2,27.36,WNW,293,2.0,7.2,24,0.00,,,0.00,WUHU216HW,2013-09-14 21:35:00,
2013-09-14 14:40:00,91.4,48.2,27.35,SSE,158,4.0,6.9,23,0.00,,,0.00,WUHU216HW,2013-09-14 21:40:00,
2013-09-14 14:45:00,91.3,49.1,27.35,East,90,2.7,5.6,24,0.00,,,0.00,WUHU216HW,2013-09-14 21:45:00,
2013-09-14 14:50:00,91.6,48.2,27.35,West,270,1.8,5.6,23,0.00,,,0.00,WUHU216HW,2013-09-14 21:50:00,
2013-09-14 14:55:00,91.8,48.4,27.35,NNE,23,3.8,4.3,23,0.00,,,0.00,WUHU216HW,2013-09-14 21:55:00,
2013-09-14 15:00:00,92.0,49.7,27.35,SE,135,0.7,3.8,24,0.00,,,0.00,WUHU216HW,2013-09-14 22:00:00,
2013-09-14 15:05:00,91.8,49.5,27.35,NE,45,1.8,3.8,24,0.00,,,0.00,WUHU216HW,2013-09-14 22:05:00,
2013-09-14 15:10:00,91.4,49.2,27.35,SE,135,0.2,3.6,24,0.00,,,0.00,WUHU216HW,2013-09-14 22:10:00,
2013-09-14 15:15:00,91.8,48.4,27.35,NNE,23,2.0,2.7,23,0.00,,,0.00,WUHU216HW,2013-09-14 22:15:00,
2013-09-14 15:20:00,92.0,49.7,27.35,SSE,158,2.5,2.7,24,0.00,,,0.00,WUHU216HW,2013-09-14 22:20:00,
2013-09-14 15:25:00,91.8,49.5,27.35,NE,45,0.4,3.4,24,0.00,,,0.00,WUHU216HW,2013-09-14 22:25:00,
2013-09-14 15:30:00,91.4,49.2,27.35,SE,135,1.8,3.6,24,0.00,,,0.00,WUHU216HW,2013-09-14 22:30:00,
2013-09-14 15:35:00,90.9,49.9,27.35,North,0,0.0,3.6,25,0.00,,,0.00,WUHU216HW,2013-09-14 22:35:00,
2013-09-14 15:40:00,91.3,49.1,27.35,South,180,3.4,3.8,24,0.00,,,0.00,WUHU216HW,2013-09-14 22:40:00,
2013-09-14 15:45:00,91.8,51.7,27.34,ENE,68,0.0,3.8,26,0.00,,,0.00,WUHU216HW,2013-09-14 22:45:00,
2013-09-14 15:49:00,92.0,49.7,27.35,SE,135,3.4,3.4,24,0.00,,,0.00,WUHU216HW,2013-09-14 22:49:00,
2013-09-14 15:54:00,91.1,48.9,27.34,East,90,0.4,6.0,24,0.00,,,0.00,WUHU216HW,2013-09-14 22:54:00,
2013-09-14 15:59:00,90.9,49.9,27.34,SE,135,2.5,6.0,25,0.00,,,0.00,WUHU216HW,2013-09-14 22:59:00,
2013-09-14 16:04:00,91.1,48.9,27.34,SSW,203,2.2,5.1,24,0.00,,,0.00,WUHU216HW,2013-09-14 23:04:00,
2013-09-14 16:09:00,91.1,47.8,27.34,SSE,158,1.8,6.9,23,0.00,,,0.00,WUHU216HW,2013-09-14 23:09:00,
2013-09-14 16:14:00,90.9,48.8,27.34,West,270,0.7,6.9,24,0.00,,,0.00,WUHU216HW,2013-09-14 23:14:00,
2013-09-14 16:19:00,90.9,47.7,27.34,ESE,113,2.0,3.8,23,0.00,,,0.00,WUHU216HW,2013-09-14 23:19:00,
2013-09-14 16:24:00,90.9,48.8,27.34,NW,315,0.4,3.8,24,0.00,,,0.00,WUHU216HW,2013-09-14 23:24:00,
2013-09-14 16:29:00,90.7,48.6,27.33,NW,315,0.9,3.6,24,0.00,,,0.00,WUHU216HW,2013-09-14 23:29:00,
2013-09-14 16:34:00,90.7,48.6,27.34,ENE,68,1.3,3.4,24,0.00,,,0.00,WUHU216HW,2013-09-14 23:34:00,
2013-09-14 16:39:00,90.7,49.7,27.33,SE,135,0.0,1.8,25,0.00,,,0.00,WUHU216HW,2013-09-14 23:39:00,
2013-09-14 16:44:00,90.7,50.8,27.33,West,270,0.4,2.0,26,0.00,,,0.00,WUHU216HW,2013-09-14 23:44:00,
2013-09-14 16:49:00,90.7,47.5,27.33,SE,135,1.3,4.0,23,0.00,,,0.00,WUHU216HW,2013-09-14 23:49:00,
2013-09-14 16:54:00,90.7,48.6,27.33,NE,45,2.0,4.3,24,0.00,,,0.00,WUHU216HW,2013-09-14 23:54:00,
2013-09-14 16:59:00,90.5,49.5,27.33,NE,45,1.1,4.3,25,0.00,,,0.00,WUHU216HW,2013-09-14 23:59:00,
2013-09-14 17:04:00,90.7,47.5,27.33,NW,315,2.5,2.5,23,0.00,,,0.00,WUHU216HW,2013-09-15 00:04:00,
2013-09-14 17:09:00,90.7,48.6,27.33,SE,135,0.4,2.5,24,0.00,,,0.00,WUHU216HW,2013-09-15 00:09:00,
2013-09-14 17:14:00,90.9,47.7,27.33,SE,135,1.6,5.1,23,0.00,,,0.00,WUHU216HW,2013-09-15 00:14:00,
2013-09-14 17:19:00,90.7,48.6,27.33,SE,135,0.4,5.1,24,0.00,,,0.00,WUHU216HW,2013-09-15 00:19:00,
2013-09-14 17:24:00,90.9,47.7,27.33,ESE,113,1.3,4.0,23,0.00,,,0.00,WUHU216HW,2013-09-15 00:24:00,
2013-09-14 17:29:00,90.9,48.8,27.33,ESE,113,1.1,3.4,24,0.00,,,0.00,WUHU216HW,2013-09-15 00:29:00,
2013-09-14 17:34:00,90.9,48.8,27.33,NW,315,1.1,3.4,24,0.00,,,0.00,WUHU216HW,2013-09-15 00:34:00,
2013-09-14 17:39:00,90.9,48.8,27.33,SE,135,1.6,3.1,24,0.00,,,0.00,WUHU216HW,2013-09-15 00:39:00,
2013-09-14 17:44:00,90.5,49.5,27.33,SW,225,0.7,3.1,25,0.00,,,0.00,WUHU216HW,2013-09-15 00:44:00,
2013-09-14 17:49:00,90.0,49.1,27.33,NW,315,0.0,2.5,25,0.00,,,0.00,WUHU216HW,2013-09-15 00:49:00,
2013-09-14 17:54:00,89.3,49.6,27.33,SW,225,0.0,3.1,26,0.00,,,0.00,WUHU216HW,2013-09-15 00:54:00,
2013-09-14 17:59:00,88.6,49.0,27.33,ESE,113,0.4,3.1,26,0.00,,,0.00,WUHU216HW,2013-09-15 00:59:00,
2013-09-14 18:04:00,87.7,48.2,27.33,WSW,248,1.6,2.7,26,0.00,,,0.00,WUHU216HW,2013-09-15 01:04:00,
2013-09-14 18:09:00,87.1,48.8,27.33,SW,225,0.2,4.3,27,0.00,,,0.00,WUHU216HW,2013-09-15 01:09:00,
2013-09-14 18:14:00,86.6,49.4,27.33,NE,45,0.0,4.3,28,0.00,,,0.00,WUHU216HW,2013-09-15 01:14:00,
2013-09-14 18:19:00,85.9,48.8,27.33,NNE,23,0.0,2.0,28,0.00,,,0.00,WUHU216HW,2013-09-15 01:19:00,
2013-09-14 18:24:00,85.5,49.6,27.33,NNE,23,0.7,2.0,29,0.00,,,0.00,WUHU216HW,2013-09-15 01:24:00,
2013-09-14 18:29:00,85.0,49.1,27.33,North,0,0.2,0.7,29,0.00,,,0.00,WUHU216HW,2013-09-15 01:29:00,
2013-09-14 18:34:00,84.2,48.4,27.33,NNE,23,0.2,0.7,29,0.00,,,0.00,WUHU216HW,2013-09-15 01:34:00,
2013-09-14 18:39:00,83.7,48.0,27.33,ENE,68,0.9,1.8,29,0.00,,,0.00,WUHU216HW,2013-09-15 01:39:00,
2013-09-14 18:44:00,83.2,48.5,27.33,NE,45,0.0,1.8,30,0.00,,,0.00,WUHU216HW,2013-09-15 01:44:00,
2013-09-14 18:49:00,82.6,48.1,27.33,ENE,68,0.4,1.3,30,0.00,,,0.00,WUHU216HW,2013-09-15 01:49:00,
2013-09-14 18:54:00,82.1,48.4,27.33,ENE,68,0.0,0.9,31,0.00,,,0.00,WUHU216HW,2013-09-15 01:54:00,
2013-09-14 18:58:00,81.5,48.0,27.33,ENE,68,0.0,0.4,31,0.00,,,0.00,WUHU216HW,2013-09-15 01:58:00,
2013-09-14 19:04:00,81.0,47.5,27.34,NNE,23,0.0,0.4,31,0.00,,,0.00,WUHU216HW,2013-09-15 02:04:00,
2013-09-14 19:08:00,80.3,47.7,27.33,NE,45,0.0,0.4,32,0.00,,,0.00,WUHU216HW,2013-09-15 02:08:00,
2013-09-14 19:13:00,79.7,47.2,27.34,NE,45,0.7,1.1,32,0.00,,,0.00,WUHU216HW,2013-09-15 02:13:00,
2013-09-14 19:18:00,79.2,46.7,27.34,NE,45,0.2,1.1,32,0.00,,,0.00,WUHU216HW,2013-09-15 02:18:00,
2013-09-14 19:23:00,78.8,47.2,27.34,NE,45,0.0,0.7,33,0.00,,,0.00,WUHU216HW,2013-09-15 02:23:00,
2013-09-14 19:28:00,78.3,46.7,27.34,NE,45,0.0,0.4,33,0.00,,,0.00,WUHU216HW,2013-09-15 02:28:00,
2013-09-14 19:33:00,77.9,46.4,27.34,NE,45,0.4,0.4,33,0.00,,,0.00,WUHU216HW,2013-09-15 02:33:00,
2013-09-14 19:38:00,77.4,46.7,27.34,NE,45,0.0,0.4,34,0.00,,,0.00,WUHU216HW,2013-09-15 02:38:00,
2013-09-14 19:43:00,77.0,46.5,27.34,NE,45,0.7,0.7,34,0.00,,,0.00,WUHU216HW,2013-09-15 02:43:00,
2013-09-14 19:48:00,76.3,45.7,27.34,ENE,68,0.7,1.6,34,0.00,,,0.00,WUHU216HW,2013-09-15 02:48:00,
2013-09-14 19:53:00,76.0,45.5,27.34,ENE,68,0.4,1.6,34,0.00,,,0.00,WUHU216HW,2013-09-15 02:53:00,
2013-09-14 19:58:00,75.4,45.7,27.34,ENE,68,0.0,0.9,35,0.00,,,0.00,WUHU216HW,2013-09-15 02:58:00,
2013-09-14 20:03:00,74.9,45.2,27.34,ENE,68,0.0,0.7,35,0.00,,,0.00,WUHU216HW,2013-09-15 03:03:00,
2013-09-14 20:08:00,74.5,46.5,27.34,ESE,113,0.0,1.1,37,0.00,,,0.00,WUHU216HW,2013-09-15 03:08:00,
2013-09-14 20:13:00,74.0,45.9,27.34,East,90,0.0,1.1,37,0.00,,,0.00,WUHU216HW,2013-09-15 03:13:00,
2013-09-14 20:18:00,73.4,45.5,27.34,NNE,23,0.4,1.1,37,0.00,,,0.00,WUHU216HW,2013-09-15 03:18:00,
2013-09-14 20:24:00,72.9,45.7,27.34,SE,135,0.9,1.1,38,0.00,,,0.00,WUHU216HW,2013-09-15 03:24:00,
2013-09-14 20:29:00,72.5,45.4,27.34,ENE,68,0.0,0.9,38,0.00,,,0.00,WUHU216HW,2013-09-15 03:29:00,
2013-09-14 20:34:00,72.2,45.1,27.34,NE,45,0.4,0.9,38,0.00,,,0.00,WUHU216HW,2013-09-15 03:34:00,
2013-09-14 20:39:00,71.8,45.6,27.34,NE,45,0.0,0.7,39,0.00,,,0.00,WUHU216HW,2013-09-15 03:39:00,
2013-09-14 20:44:00,71.3,45.0,27.34,ESE,113,0.2,0.9,39,0.00,,,0.00,WUHU216HW,2013-09-15 03:44:00,
2013-09-14 20:49:00,70.7,45.3,27.34,ENE,68,0.0,0.9,40,0.00,,,0.00,WUHU216HW,2013-09-15 03:49:00,
2013-09-14 20:54:00,70.4,44.9,27.35,ENE,68,0.4,0.4,40,0.00,,,0.00,WUHU216HW,2013-09-15 03:54:00,
2013-09-14 20:59:00,69.8,44.5,27.35,ENE,68,0.4,0.9,40,0.00,,,0.00,WUHU216HW,2013-09-15 03:59:00,
2013-09-14 21:01:00,69.8,44.5,27.35,NE,45,0.0,1.3,40,0.00,,,0.00,WUHU216HW,2013-09-15 04:01:00,
2013-09-14 21:02:00,69.7,44.9,27.35,NE,45,0.4,1.3,41,0.00,,,0.00,WUHU216HW,2013-09-15 04:02:00,
2013-09-14 21:07:00,69.5,44.7,27.35,NE,45,0.9,1.3,41,0.00,,,0.00,WUHU216HW,2013-09-15 04:07:00,
2013-09-14 21:12:00,69.1,45.0,27.35,NE,45,0.4,1.3,42,0.00,,,0.00,WUHU216HW,2013-09-15 04:12:00,
2013-09-14 21:17:00,68.9,44.8,27.35,NE,45,0.4,1.1,42,0.00,,,0.00,WUHU216HW,2013-09-15 04:17:00,
2013-09-14 21:22:00,68.6,44.6,27.35,NE,45,0.0,1.1,42,0.00,,,0.00,WUHU216HW,2013-09-15 04:22:00,
2013-09-14 21:27:00,68.4,44.9,27.35,NE,45,0.0,0.4,43,0.00,,,0.00,WUHU216HW,2013-09-15 04:27:00,
2013-09-14 21:32:00,67.9,43.8,27.35,SE,135,0.4,0.4,42,0.00,,,0.00,WUHU216HW,2013-09-15 04:32:00,
2013-09-14 21:37:00,67.5,43.6,27.35,SE,135,0.0,0.4,42,0.00,,,0.00,WUHU216HW,2013-09-15 04:37:00,
2013-09-14 21:42:00,67.3,43.4,27.35,ENE,68,0.2,0.4,42,0.00,,,0.00,WUHU216HW,2013-09-15 04:42:00,
2013-09-14 21:47:00,67.0,43.7,27.35,SE,135,0.0,0.2,43,0.00,,,0.00,WUHU216HW,2013-09-15 04:47:00,
2013-09-14 21:52:00,66.8,43.5,27.35,SE,135,0.0,0.2,43,0.00,,,0.00,WUHU216HW,2013-09-15 04:52:00,
2013-09-14 21:57:00,66.6,43.3,27.35,ENE,68,0.0,0.2,43,0.00,,,0.00,WUHU216HW,2013-09-15 04:57:00,
2013-09-14 22:02:00,66.6,43.3,27.35,ENE,68,0.0,0.2,43,0.00,,,0.00,WUHU216HW,2013-09-15 05:02:00,
2013-09-14 22:07:00,66.4,43.7,27.35,ENE,68,0.0,0.9,44,0.00,,,0.00,WUHU216HW,2013-09-15 05:07:00,
2013-09-14 22:12:00,66.2,43.6,27.35,ENE,68,0.9,1.3,44,0.00,,,0.00,WUHU216HW,2013-09-15 05:12:00,
2013-09-14 22:17:00,66.1,43.5,27.35,ENE,68,0.0,1.3,44,0.00,,,0.00,WUHU216HW,2013-09-15 05:17:00,
2013-09-14 22:22:00,65.9,43.3,27.35,ENE,68,0.0,0.9,44,0.00,,,0.00,WUHU216HW,2013-09-15 05:22:00,
2013-09-14 22:27:00,65.7,43.1,27.35,ENE,68,0.0,0.9,44,0.00,,,0.00,WUHU216HW,2013-09-15 05:27:00,
2013-09-14 22:32:00,65.5,43.5,27.35,ENE,68,0.0,1.1,45,0.00,,,0.00,WUHU216HW,2013-09-15 05:32:00,
2013-09-14 22:37:00,65.3,43.4,27.35,SE,135,0.0,1.1,45,0.00,,,0.00,WUHU216HW,2013-09-15 05:37:00,
2013-09-14 22:42:00,65.2,43.2,27.35,SE,135,0.0,0.0,45,0.00,,,0.00,WUHU216HW,2013-09-15 05:42:00,
2013-09-14 22:47:00,64.8,42.9,27.35,SW,225,0.0,0.0,45,0.00,,,0.00,WUHU216HW,2013-09-15 05:47:00,
2013-09-14 22:52:00,64.6,42.7,27.35,SW,225,0.0,0.0,45,0.00,,,0.00,WUHU216HW,2013-09-15 05:52:00,
2013-09-14 22:57:00,64.4,43.0,27.35,SW,225,0.0,0.0,46,0.00,,,0.00,WUHU216HW,2013-09-15 05:57:00,
2013-09-14 23:02:00,64.3,43.5,27.35,SW,225,0.0,0.0,47,0.00,,,0.00,WUHU216HW,2013-09-15 06:02:00,
2013-09-14 23:07:00,63.9,43.1,27.35,SW,225,0.0,0.0,47,0.00,,,0.00,WUHU216HW,2013-09-15 06:07:00,
2013-09-14 23:12:00,63.7,43.0,27.35,SW,225,0.0,0.0,47,0.00,,,0.00,WUHU216HW,2013-09-15 06:12:00,
2013-09-14 23:17:00,63.4,43.2,27.35,WSW,248,0.2,0.2,48,0.00,,,0.00,WUHU216HW,2013-09-15 06:17:00,
2013-09-14 23:22:00,63.4,43.2,27.35,WSW,248,0.0,0.2,48,0.00,,,0.00,WUHU216HW,2013-09-15 06:22:00,
2013-09-14 23:27:00,63.2,43.1,27.35,SW,225,0.0,0.2,48,0.00,,,0.00,WUHU216HW,2013-09-15 06:27:00,
2013-09-14 23:32:00,63.0,42.9,27.35,SW,225,0.0,0.0,48,0.00,,,0.00,WUHU216HW,2013-09-15 06:32:00,
2013-09-14 23:37:00,63.0,42.9,27.34,SW,225,0.0,0.0,48,0.00,,,0.00,WUHU216HW,2013-09-15 06:37:00,
2013-09-14 23:42:00,62.8,43.3,27.34,WSW,248,0.4,0.7,49,0.00,,,0.00,WUHU216HW,2013-09-15 06:42:00,
2013-09-14 23:47:00,62.5,43.0,27.34,WSW,248,0.0,0.7,49,0.00,,,0.00,WUHU216HW,2013-09-15 06:47:00,
2013-09-14 23:52:00,62.1,42.7,27.35,WSW,248,0.0,0.7,49,0.00,,,0.00,WUHU216HW,2013-09-15 06:52:00,
2013-09-14 23:57:00,61.9,43.1,27.35,WSW,248,0.0,0.2,50,0.00,,,0.00,WUHU216HW,2013-09-15 06:57:00,